| time (UTC) | temp F | wind direction | speed knots | gust knots | rain 1hr in | rain 24hr in | rain mn in | humidity % | barometer mb |
| 20260506135023 | 57 | 42 | 15.6 | 18.2 | 0.00 | 0.00 | 0.00 | 65 | 1011.8 |
| 20260506134020 | 58 | 40 | 13.0 | 15.6 | 0.00 | 0.00 | 0.00 | 64 | 1011.6 |
| 20260506133018 | 57 | 40 | 15.6 | 20.0 | 0.00 | 0.00 | 0.00 | 65 | 1011.6 |
| 20260506132035 | 57 | 39 | 11.3 | 16.5 | 0.00 | 0.00 | 0.00 | 65 | 1011.6 |
| 20260506131042 | 58 | 63 | 10.4 | 15.6 | 0.00 | 0.00 | 0.00 | 67 | 1011.7 |
| 20260506130040 | 58 | 11 | 9.6 | 12.2 | 0.00 | 0.00 | 0.00 | 68 | 1011.6 |
| 20260506125057 | 57 | 34 | 13.0 | 16.5 | 0.00 | 0.00 | 0.00 | 67 | 1011.6 |
| 20260506124055 | 57 | 47 | 13.0 | 14.8 | 0.00 | 0.00 | 0.00 | 65 | 1011.5 |
| 20260506123032 | 57 | 23 | 11.3 | 15.6 | 0.00 | 0.00 | 0.00 | 67 | 1011.4 |
| 20260506122029 | 57 | 29 | 13.0 | 19.1 | 0.00 | 0.00 | 0.00 | 64 | 1011.6 |
| 20260506121026 | 58 | 355 | 8.7 | 11.3 | 0.00 | 0.00 | 0.00 | 65 | 1011.4 |
| 20260506120023 | 58 | 41 | 7.0 | 7.8 | 0.00 | 0.00 | 0.00 | 61 | 1011.4 |
| 20260506115021 | 57 | 57 | 7.8 | 11.3 | 0.00 | 0.00 | 0.00 | 58 | 1011.5 |
| 20260506114018 | 59 | 38 | 10.4 | 13.9 | 0.00 | 0.00 | 0.00 | 61 | 1011.4 |
| 20260506113035 | 57 | 38 | 11.3 | 13.9 | 0.00 | 0.00 | 0.00 | 61 | 1011.5 |
| 20260506112043 | 58 | 75 | 13.9 | 18.2 | 0.00 | 0.00 | 0.00 | 62 | 1011.5 |
| 20260506111040 | 57 | 30 | 11.3 | 13.9 | 0.00 | 0.00 | 0.00 | 67 | 1011.4 |
| 20260506110037 | 58 | 52 | 11.3 | 13.9 | 0.00 | 0.00 | 0.00 | 65 | 1011.4 |
| 20260506105053 | 57 | 45 | 13.9 | 18.2 | 0.00 | 0.00 | 0.00 | 65 | 1011.5 |
| 20260506104030 | 57 | 53 | 11.3 | 13.9 | 0.00 | 0.00 | 0.00 | 69 | 1011.5 |
| 20260506103027 | 57 | 28 | 9.6 | 13.0 | 0.00 | 0.00 | 0.00 | 70 | 1011.4 |
| 20260506102025 | 57 | 35 | 10.4 | 13.0 | 0.00 | 0.00 | 0.00 | 71 | 1011.3 |
| 20260506101022 | 56 | 46 | 9.6 | 12.2 | 0.00 | 0.00 | 0.00 | 71 | 1011.5 |
| 20260506100039 | 57 | 35 | 10.4 | 13.0 | 0.00 | 0.00 | 0.00 | 72 | 1011.3 |
| 20260506095037 | 56 | 50 | 9.6 | 12.2 | 0.00 | 0.00 | 0.00 | 74 | 1011.4 |
| 20260506094044 | 55 | 51 | 8.7 | 12.2 | 0.00 | 0.00 | 0.00 | 74 | 1011.4 |
| 20260506093041 | 55 | 37 | 13.9 | 16.5 | 0.00 | 0.00 | 0.00 | 76 | 1011.5 |
| 20260506092038 | 55 | 354 | 12.2 | 15.6 | 0.00 | 0.00 | 0.00 | 76 | 1011.3 |
| 20260506091035 | 54 | 15 | 10.4 | 12.2 | 0.00 | 0.00 | 0.00 | 78 | 1011.4 |
| 20260506090033 | 54 | 43 | 9.6 | 12.2 | 0.00 | 0.00 | 0.00 | 78 | 1011.4 |
| 20260506085030 | 55 | 26 | 7.0 | 11.3 | 0.00 | 0.00 | 0.00 | 77 | 1011.4 |
| 20260506084027 | 54 | 44 | 11.3 | 13.9 | 0.00 | 0.00 | 0.00 | 75 | 1011.3 |
| 20260506083044 | 54 | 41 | 9.6 | 13.9 | 0.00 | 0.00 | 0.00 | 76 | 1011.3 |
| 20260506082022 | 54 | 65 | 14.8 | 19.1 | 0.00 | 0.00 | 0.00 | 75 | 1011.3 |
| 20260506081019 | 55 | 39 | 11.3 | 16.5 | 0.00 | 0.00 | 0.00 | 75 | 1011.3 |
| 20260506073039 | 53 | 33 | 9.6 | 11.3 | 0.00 | 0.00 | 0.00 | 80 | 1011.1 |
| 20260506072036 | 54 | 42 | 8.7 | 9.6 | 0.00 | 0.00 | 0.00 | 81 | 1011.2 |
| 20260506071033 | 53 | 51 | 9.6 | 13.9 | 0.00 | 0.00 | 0.00 | 81 | 1011.2 |
| 20260506062019 | 51 | 28 | 8.7 | 11.3 | 0.00 | 0.00 | 0.00 | 85 | 1011.1 |
| 20260506061017 | 51 | 351 | 8.7 | 13.0 | 0.00 | 0.00 | 0.00 | 85 | 1011.0 |
| 20260506051031 | 50 | 266 | 8.7 | 12.2 | 0.00 | 0.00 | 0.00 | 86 | 1010.8 |
| 20260506045025 | 50 | 266 | 8.7 | 11.3 | 0.00 | 0.00 | 0.00 | 85 | 1011.0 |
| 20260506044022 | 50 | 266 | 9.6 | 11.3 | 0.00 | 0.00 | 0.00 | 85 | 1011.0 |
| 20260506043019 | 50 | 266 | 8.7 | 11.3 | 0.00 | 0.00 | 0.00 | 85 | 1011.0 |
| 20260506042016 | 50 | 266 | 9.6 | 12.2 | 0.00 | 0.00 | 0.00 | 84 | 1010.9 |
| 20260506041044 | 50 | 267 | 10.4 | 12.2 | 0.00 | 0.00 | 0.00 | 83 | 1011.0 |
| 20260506040041 | 50 | 266 | 7.8 | 9.6 | 0.00 | 0.00 | 0.00 | 82 | 1011.0 |
| 20260506035038 | 50 | 267 | 10.4 | 12.2 | 0.00 | 0.00 | 0.00 | 82 | 1011.0 |
| 20260506034036 | 50 | 267 | 9.6 | 12.2 | 0.00 | 0.00 | 0.00 | 82 | 1011.0 |
| 20260506033033 | 50 | 266 | 8.7 | 12.2 | 0.00 | 0.00 | 0.00 | 84 | 1011.0 |
| 20260506032030 | 50 | 266 | 10.4 | 11.3 | 0.00 | 0.00 | 0.00 | 85 | 1011.2 |
| 20260506031028 | 50 | 266 | 7.8 | 9.6 | 0.00 | 0.00 | 0.00 | 85 | 1011.2 |
| 20260506030105 | 50 | 266 | 10.4 | 13.0 | 0.00 | 0.00 | 0.00 | 85 | 1011.1 |
| 20260506025022 | 50 | 266 | 7.0 | 7.8 | 0.00 | 0.00 | 0.00 | 85 | 1011.4 |
| 20260506024019 | 50 | 266 | 8.7 | 9.6 | 0.00 | 0.00 | 0.00 | 85 | 1011.3 |
| 20260506023016 | 50 | 266 | 9.6 | 13.0 | 0.00 | 0.00 | 0.00 | 85 | 1011.4 |
| 20260506022043 | 50 | 266 | 9.6 | 12.2 | 0.00 | 0.00 | 0.00 | 85 | 1011.4 |
| 20260506021100 | 50 | 266 | 9.6 | 12.2 | 0.00 | 0.00 | 0.00 | 84 | 1011.4 |
| 20260506020037 | 49 | 266 | 8.7 | 11.3 | 0.00 | 0.00 | 0.00 | 85 | 1011.3 |
| 20260506015035 | 49 | 266 | 8.7 | 11.3 | 0.00 | 0.00 | 0.00 | 85 | 1011.6 |
| 20260506014032 | 49 | 266 | 7.0 | 8.7 | 0.00 | 0.00 | 0.00 | 85 | 1011.6 |
| 20260506013028 | 49 | 266 | 8.7 | 9.6 | 0.00 | 0.00 | 0.00 | 85 | 1011.6 |
| 20260506012026 | 49 | 266 | 9.6 | 12.2 | 0.00 | 0.00 | 0.00 | 85 | 1011.5 |
| 20260506011023 | 49 | 266 | 7.8 | 8.7 | 0.00 | 0.00 | 0.00 | 86 | 1011.7 |
| 20260506010020 | 49 | 266 | 7.0 | 9.6 | 0.00 | 0.00 | 0.00 | 86 | 1011.6 |
| 20260506005017 | 49 | 266 | 8.7 | 11.3 | 0.00 | 0.00 | 0.00 | 86 | 1011.8 |
| 20260506004044 | 49 | 266 | 7.8 | 8.7 | 0.00 | 0.00 | 0.00 | 86 | 1011.9 |
| 20260506003041 | 48 | 266 | 9.6 | 13.9 | 0.00 | 0.00 | 0.00 | 87 | 1012.1 |
| 20260506002058 | 48 | 266 | 5.2 | 7.8 | 0.00 | 0.00 | 0.00 | 87 | 1012.1 |
| 20260506001035 | 48 | 266 | 6.1 | 7.8 | 0.00 | 0.00 | 0.00 | 88 | 1012.2 |
| 20260506000033 | 47 | 267 | 4.3 | 6.1 | 0.00 | 0.00 | 0.00 | 88 | 1012.1 |
| 20260505235050 | 47 | 267 | 5.2 | 6.1 | 0.00 | 0.00 | 0.00 | 88 | 1012.4 |
| 20260505234027 | 48 | 266 | 5.2 | 6.1 | 0.00 | 0.00 | 0.00 | 87 | 1012.3 |
| 20260505233024 | 47 | 266 | 5.2 | 7.0 | 0.00 | 0.00 | 0.00 | 87 | 1012.4 |
| 20260505232021 | 47 | 267 | 6.1 | 7.8 | 0.00 | 0.00 | 0.00 | 88 | 1012.6 |
| 20260505231038 | 48 | 266 | 5.2 | 6.1 | 0.00 | 0.00 | 0.00 | 87 | 1012.4 |
| 20260505230015 | 48 | 266 | 4.3 | 6.1 | 0.00 | 0.00 | 0.00 | 87 | 1012.7 |
| 20260505225042 | 48 | 266 | 6.1 | 7.8 | 0.00 | 0.00 | 0.00 | 86 | 1012.5 |
| 20260505224040 | 49 | 266 | 6.1 | 7.0 | 0.00 | 0.00 | 0.00 | 86 | 1012.6 |
| 20260505223036 | 49 | 266 | 5.2 | 7.0 | 0.00 | 0.00 | 0.00 | 85 | 1012.6 |
| 20260505222033 | 49 | 266 | 8.7 | 12.2 | 0.00 | 0.00 | 0.00 | 84 | 1012.6 |
| 20260505221031 | 49 | 266 | 7.8 | 11.3 | 0.00 | 0.00 | 0.00 | 83 | 1012.7 |
| 20260505220048 | 50 | 266 | 5.2 | 7.0 | 0.00 | 0.00 | 0.00 | 82 | 1012.8 |
| 20260505215025 | 50 | 266 | 7.8 | 11.3 | 0.00 | 0.00 | 0.00 | 82 | 1012.9 |
| 20260505214022 | 49 | 266 | 7.8 | 9.6 | 0.00 | 0.00 | 0.00 | 81 | 1013.1 |
| 20260505213019 | 49 | 266 | 5.2 | 6.1 | 0.00 | 0.00 | 0.00 | 79 | 1012.9 |
| 20260505212017 | 49 | 266 | 6.1 | 7.8 | 0.00 | 0.00 | 0.00 | 79 | 1013.0 |
| 20260505211044 | 49 | 266 | 6.1 | 8.7 | 0.00 | 0.00 | 0.00 | 79 | 1013.1 |
| 20260505210041 | 49 | 266 | 5.2 | 7.0 | 0.00 | 0.00 | 0.00 | 80 | 1013.0 |
| 20260505205038 | 49 | 266 | 7.0 | 8.7 | 0.00 | 0.00 | 0.00 | 80 | 1013.2 |
| 20260505204035 | 49 | 266 | 6.1 | 7.8 | 0.00 | 0.00 | 0.00 | 79 | 1013.1 |
| 20260505203032 | 49 | 266 | 6.1 | 7.0 | 0.00 | 0.00 | 0.00 | 79 | 1012.9 |
| 20260505202029 | 49 | 266 | 6.1 | 7.8 | 0.00 | 0.00 | 0.00 | 80 | 1013.0 |
| 20260505201026 | 49 | 266 | 5.2 | 7.0 | 0.00 | 0.00 | 0.00 | 79 | 1012.7 |
| 20260505200024 | 49 | 266 | 7.0 | 8.7 | 0.00 | 0.00 | 0.00 | 79 | 1012.8 |
| 20260505195021 | 49 | 266 | 6.1 | 7.8 | 0.00 | 0.00 | 0.00 | 80 | 1012.7 |
| 20260505194018 | 49 | 266 | 6.1 | 7.8 | 0.00 | 0.00 | 0.00 | 79 | 1012.6 |
| 20260505193015 | 49 | 266 | 6.1 | 7.8 | 0.00 | 0.00 | 0.00 | 79 | 1012.5 |
| 20260505192043 | 49 | 266 | 8.7 | 11.3 | 0.00 | 0.00 | 0.00 | 79 | 1012.6 |
| 20260505191040 | 50 | 266 | 8.7 | 11.3 | 0.00 | 0.00 | 0.00 | 78 | 1012.5 |
| 20260505190037 | 50 | 266 | 8.7 | 12.2 | 0.00 | 0.00 | 0.00 | 77 | 1012.5 |
| 20260505185034 | 50 | 266 | 7.8 | 9.6 | 0.00 | 0.00 | 0.00 | 77 | 1012.4 |
| 20260505184051 | 50 | 266 | 8.7 | 11.3 | 0.00 | 0.00 | 0.00 | 77 | 1012.5 |
| 20260505183028 | 51 | 267 | 8.7 | 12.2 | 0.00 | 0.00 | 0.00 | 75 | 1012.3 |
| 20260505182025 | 51 | 269 | 9.6 | 13.0 | 0.00 | 0.00 | 0.00 | 74 | 1012.5 |
| 20260505181042 | 51 | 308 | 11.3 | 13.9 | 0.00 | 0.00 | 0.00 | 75 | 1012.5 |
| 20260505180020 | 52 | 352 | 13.0 | 15.6 | 0.00 | 0.00 | 0.00 | 75 | 1012.5 |
| 20260505175017 | 52 | 31 | 12.2 | 15.6 | 0.00 | 0.00 | 0.00 | 74 | 1012.5 |
| 20260505174044 | 53 | 35 | 14.8 | 16.5 | 0.00 | 0.00 | 0.00 | 74 | 1012.5 |
| 20260505173041 | 53 | 33 | 12.2 | 18.2 | 0.00 | 0.00 | 0.00 | 74 | 1012.4 |
| 20260505172039 | 54 | 34 | 11.3 | 18.2 | 0.00 | 0.00 | 0.00 | 74 | 1012.4 |
| 20260505171056 | 54 | 46 | 13.0 | 14.8 | 0.00 | 0.00 | 0.00 | 73 | 1012.3 |
| 20260505170033 | 54 | 27 | 12.2 | 15.6 | 0.00 | 0.00 | 0.00 | 73 | 1012.3 |
| 20260505165050 | 54 | 36 | 13.0 | 16.5 | 0.00 | 0.00 | 0.00 | 73 | 1012.4 |
| 20260505164027 | 54 | 40 | 13.0 | 15.6 | 0.00 | 0.00 | 0.00 | 73 | 1012.3 |
| 20260505163024 | 55 | 28 | 16.5 | 20.0 | 0.00 | 0.00 | 0.00 | 72 | 1012.4 |
| 20260505162021 | 55 | 40 | 13.9 | 19.1 | 0.00 | 0.00 | 0.00 | 72 | 1012.8 |
| 20260505161039 | 55 | 31 | 13.0 | 18.2 | 0.00 | 0.00 | 0.00 | 72 | 1012.3 |
| 20260505153037 | 56 | 27 | 9.6 | 13.9 | 0.00 | 0.00 | 0.00 | 70 | 1012.4 |
| 20260505152035 | 56 | 46 | 13.9 | 18.2 | 0.00 | 0.00 | 0.00 | 70 | 1012.4 |
| 20260505151032 | 56 | 23 | 10.4 | 13.9 | 0.00 | 0.00 | 0.00 | 69 | 1012.5 |